Location: Magliana
(41.8333°N, 12.4167°E)
Time: 01:31:58
(UTC+00:00)

Daily predictions for brighter satellites

Satellite Brightness Start Highest point End
(mag) Time Altitude Azimuth Time Altitude Azimuth Time Altitude Azimuth
Cosmos 1980 Rocket 4.3 01:05:33 23° NE 01:05:33 23° NE 01:07:36 10° NNE
Cosmos 2263 Rocket 4.4 01:01:33 10° N 01:03:49 20° NNE 01:03:49 20° NNE
Lacrosse 5 4.4 01:22:28 17° NNE 01:22:28 17° NNE 01:23:53 10° NNE
SL-16 R/B 4.1 01:24:46 23° E 01:24:46 23° E 01:28:17 10° NE
Resurs 1-4 Rocket 4.5 01:25:55 10° N 01:26:57 16° N 01:26:57 16° N
CZ-2D R/B 4.4 01:32:33 10° N 01:33:36 16° N 01:33:36 16° N
NOSS 3-3 (A) 4.5 01:51:32 54° NE 01:51:32 54° NE 01:56:32 10° NE
NOSS 3-3 (C) 4.5 01:51:39 54° NE 01:51:39 54° NE 01:56:37 10° NE
USA 267 3.5 01:43:47 10° NE 01:49:37 60° ESE 01:49:37 60° ESE
ARIANE 5 R/B 3.9 01:47:01 10° NNE 01:50:06 35° NE 01:50:06 35° NE
Gbstr 26 Del rocket 4.4 02:03:39 56° NW 02:05:35 79° NNE 02:13:04 10° ESE
ATLAS 2AS CENTAUR R/B 4.2 01:59:36 10° NNW 02:06:24 34° NE 02:12:41 10° ESE
Cosmos 468 Rocket 4.3 02:19:42 64° ENE 02:19:42 64° ENE 02:24:20 10° NNE
SL-4 R/B 3.3 02:21:54 43° NE 02:21:54 43° NE 02:25:10 10° NE
ADEOS II 3.7 02:15:55 10° N 02:18:20 25° NNW 02:18:20 25° NNW
IDEFIX/ARIANE 42P 2.7 02:17:43 10° NNE 02:22:24 70° NNE 02:22:24 70° NNE
USA 234 4.2 02:18:14 10° E 02:24:21 44° NNE 02:30:28 10° NW
Cosmos 1605 Rocket 3.9 02:29:06 10° N 02:35:31 80° W 02:37:19 50° S
Cosmos 2360 Rocket 3.2 02:33:12 26° SSE 02:35:52 42° ESE 02:41:11 10° NE
H-2A R/B 3.2 02:32:02 10° SE 02:36:12 44° ENE 02:40:29 10° N
CZ-2C R/B 3.6 02:41:24 10° NNE 02:46:20 43° E 02:51:15 10° S
Cosmos 1980 Rocket 3.7 02:47:19 22° NW 02:47:19 22° NW 02:50:53 10° N
Cosmos 2263 Rocket 4.4 02:45:01 10° NW 02:57:27 - S 02:45:20 12° NW
ASTEX 1 4.4 02:48:17 10° N 02:51:25 32° NW 02:51:25 32° NW
Cosmos 1844 Rocket 4.0 02:49:22 10° N 02:54:40 39° ENE 02:59:56 10° SE
Helios 1B 4.4 02:54:47 86° SW 02:54:50 86° WSW 02:59:12 10° NNW
Cosmos 2322 Rocket 2.1 02:54:20 58° SW 02:55:24 73° WNW 03:01:08 10° NNE
Cosmos 1898 Rocket 3.4 02:53:37 10° NNW 02:58:52 69° WSW 03:04:07 10° S
Cosmos 1666 4.0 02:57:07 10° N 02:59:07 30° NNW 02:59:07 30° NNW
Spot 4 Rocket 4.2 02:55:59 10° N 03:00:56 50° WNW 03:01:00 50° WNW
X-37B 2.8 03:04:30 19° SE 03:04:30 19° SE 03:05:36 10° SE
Meteor 1-11 Rocket 3.6 02:57:22 10° NNW 03:03:07 80° W 03:08:42 10° S
Lacrosse 5 4.0 03:01:39 13° NW 03:03:33 15° N 03:06:33 10° NNE
Cosmos 858 Rocket 4.3 03:00:19 10° NNW 03:05:32 84° WSW 03:10:44 10° SSE
SL-16 R/B 2.4 03:06:39 44° W 03:07:32 48° WNW 03:13:03 10° NNE
Meteor 1-27 Rocket 3.7 03:05:04 25° SSW 03:08:39 79° W 03:14:35 10° N
Cosmos 1727 Rocket 4.0 03:09:25 29° SSW 03:12:45 61° W 03:19:00 10° N
IRIDIUM 104 4.4 03:08:24 10° NNW 03:13:28 53° W 03:15:23 35° SW
Cosmos 1437 Rocket 4.0 03:11:25 10° SSE 03:14:58 39° E 03:18:35 10° NNE
Cosmos 2100 Rocket 4.0 03:09:10 10° N 03:15:35 85° E 03:21:56 10° S
Cosmos 2237 4.1 03:13:42 29° SSW 03:16:47 83° WNW 03:22:31 10° NNE
Cosmos 1937 Rocket 3.3 03:13:16 10° NNW 03:18:22 63° WSW 03:23:25 10° S
Cosmos 1459 Rocket 3.9 03:13:37 10° N 03:19:44 84° E 03:25:46 10° S
Cosmos 841 Rocket 3.4 03:18:31 31° SSW 03:21:04 71° WNW 03:26:21 10° NNE
Cosmos 2219 Rocket 3.6 03:18:43 10° S 03:23:51 37° ESE 03:29:03 10° NE
Cosmos 2208 Rocket 3.9 03:22:05 21° SSW 03:25:36 81° WNW 03:30:49 10° NNE
Cosmos 1802 Rocket 4.2 03:19:33 10° N 03:25:48 77° E 03:32:06 10° SSE
Cosmos 1536 2.8 03:21:57 10° NNW 03:25:57 58° W 03:29:55 10° S
Cosmos 1763 Rocket 4.2 03:25:16 32° W 03:26:14 34° WNW 03:31:04 10° N
Cosmos 1814 Rocket 3.9 03:23:39 21° SSW 03:27:13 80° WNW 03:32:32 10° NNE
ARIANE 5 R/B 4.0 03:27:11 10° NNW 03:30:25 19° WNW 03:30:25 19° WNW
USA 32 4.1 03:26:00 10° NNW 03:31:06 52° W 03:36:10 10° SSW
Cosmos 1707 Rocket 4.1 03:32:27 34° W 03:32:59 35° WNW 03:37:00 10° N
USA 267 3.8 03:26:59 10° NE 03:33:07 45° NNW 03:36:57 22° W
Cosmos 2123 Rocket 4.3 03:27:40 10° S 03:33:51 69° E 03:40:08 10° NNE
NOSS 3-4 (A) 3.8 03:27:00 10° NW 03:34:07 74° WSW 03:41:58 10° SSE
NOSS 3-4 (C) 3.8 03:27:06 10° NW 03:34:14 75° WSW 03:42:05 10° SSE
ADEOS Rocket 3.0 03:29:22 10° SSE 03:36:05 86° WSW 03:42:09 10° NNW
CZ-4B R/B 1.7 03:35:57 10° SSE 03:39:05 64° ENE 03:42:21 10° N
ERS-2 2.0 03:36:43 10° S 03:40:19 60° WSW 03:43:58 10° NNW
Cosmos 540 Rocket 3.8 03:38:54 23° SW 03:41:47 46° WNW 03:46:46 10° N
COSMOS 2428 3.6 03:40:58 10° S 03:46:26 50° ESE 03:51:57 10° NE
Cosmos 44 Rocket 3.9 03:44:48 24° W 03:46:57 37° NW 03:51:29 10° NNE
SL-19 R/B 4.3 03:44:24 10° NNE 03:48:50 83° WNW 03:52:38 10° SSW
Cosmos 1733 Rocket 3.3 03:45:01 10° NNW 03:49:09 44° W 03:53:14 10° SSW
Cosmos 1544 3.3 03:46:56 10° N 03:50:31 69° E 03:54:04 10° SSE
Cosmos 1743 2.5 03:48:02 10° NNW 03:51:51 73° W 03:55:38 10° S
PAYLOAD A 4.4 03:49:12 10° N 03:53:29 37° WNW 03:57:13 13° SW
Cosmos 2333 Rocket 2.5 03:49:40 10° SSW 03:55:24 75° ESE 04:01:11 10° NNE
ADEOS 3.5 03:52:06 10° NNE 03:57:20 79° WNW 04:02:33 10° SSW
Cosmos 2173 Rocket 4.2 03:51:22 10° NNW 03:57:26 49° W 04:03:31 10° SSW
ATLAS 2AS CENTAUR R/B 2.8 03:50:34 10° NW 03:57:49 62° WSW 04:04:28 10° SSE
Cosmos 2242 Rocket 3.5 03:53:52 10° S 03:58:15 88° W 04:02:41 10° N
BREEZE M DEB (TANK) 4.0 03:50:13 10° WNW 03:59:34 34° WSW 04:03:07 10° S
Cosmos 2322 3.6 03:54:37 10° SSW 04:00:16 78° WNW 04:05:58 10° NNE
SL-4 R/B 3.6 03:57:30 14° WNW 04:00:42 29° NNW 04:04:55 10° NE
IDEFIX/ARIANE 42P 4.3 03:59:16 10° NNW 04:01:53 14° WNW 04:03:12 13° WNW
PSLV R/B 4.4 03:59:10 10° N 04:02:45 28° WNW 04:05:43 13° WSW
Meteor 2-20 Rocket 4.4 03:57:37 10° SSW 04:03:45 73° W 04:09:53 10° N
BREEZE-M DEB (TANK) 2.8 03:59:36 15° W 04:04:42 58° NNW 04:07:26 10° ENE
USA 276 2.3 04:03:18 12° NW 04:06:17 72° NNE 04:09:29 10° ESE
USA 234 3.3 04:00:41 10° SE 04:07:09 65° SW 04:13:40 10° NW
Cosmos 1862 Rocket 4.3 04:03:59 10° SW 04:07:52 31° WNW 04:11:45 10° NNW
H-2A R/B 3.5 04:09:27 10° SW 04:12:23 17° W 04:15:23 10° NW
SAR-Lupe-4 3.6 04:09:49 10° S 04:13:18 54° WSW 04:16:51 10° NNW
Cosmos 1689 Rocket 2.2 04:12:21 10° SSE 04:15:18 79° ENE 04:18:18 10° N
PSLV R/B 4.3 04:11:30 10° SSE 04:15:32 68° ENE 04:19:37 10° N
CZ-4C R/B 3.4 04:08:23 10° NNW 04:15:42 71° NE 04:24:04 10° SE
ALOS 2.3 04:12:11 10° N 04:16:48 62° WNW 04:21:24 10° SSW
Cosmos 2333 4.4 04:12:52 10° SW 04:18:32 56° WNW 04:24:13 10° NNE
PKM 4.3 04:15:39 10° WNW 04:19:01 46° SW 04:23:28 10° SSE
FENGYUN 3A 3.7 04:13:49 10° N 04:19:10 64° WNW 04:24:30 10° SSW
Cosmos 2360 Rocket 3.1 04:15:03 10° WSW 04:19:58 30° NW 04:24:56 10° N
COSMOS 2455 4.2 04:17:45 10° NNW 04:23:30 43° NE 04:29:12 10° SE
CZ-2C R/B 3.6 04:20:10 10° NNW 04:24:17 25° WNW 04:28:24 10° WSW
Cosmos 1975 2.7 04:21:22 10° NNW 04:25:21 69° W 04:29:18 10° S
Meteor 1-19 Rocket 4.2 04:20:34 10° SSW 04:25:59 63° WNW 04:31:37 10° N
Meteor 1-18 Rocket 4.3 04:21:19 10° SSW 04:26:45 57° WNW 04:32:16 10° N
Okean 3 4.4 04:24:11 10° S 04:28:22 55° E 04:32:35 10° NNE
Cosmos 2016 Rocket 4.3 04:23:31 10° NNW 04:29:09 40° W 04:34:46 10° SSW
Sich 1 Rocket 4.3 04:28:28 10° N 04:33:02 62° E 04:37:31 10° SSE
Cosmos 1484 Rocket 3.6 04:30:22 10° N 04:33:59 33° WNW 04:37:35 10° SW
ATLAS CENTAUR Rocket 4.0 04:30:21 10° WSW 04:37:31 21° SSW 04:41:03 10° SSE
